Home   Weather   Columbus Park   Past weeks
Flag for USA

Past Weather in Columbus Park, Iowa, USA — Yesterday and Last 2 Weeks

Now
42 °F

Fog.


Feels Like: 38 °F
Forecast: 42 / 31 °F
Wind: 6 mph from South

Location: Des Moines International Airport
Current Time: Oct 20, 2020 at 6:23:14 pm
Latest Report: Oct 20, 2020 at 5:54 pm
Visibility: 6 mi
Pressure30.01 "Hg
Humidity: 92%
Dew Point: 40 °F
Location of Columbus ParkLocation

Past Weather in Columbus Park — Graph

°F

Columbus Park Temperature Yesterday

Maximum temperature yesterday: 35 °F (at 5:54 am)
Minimum temperature yesterday: 30 °F (at 11:54 am)
Average temperature yesterday: 33 °F

High & Low Weather Summary for the Past Weeks

 TemperatureHumidityPressure
High86 °F (Oct 9, 2:54 pm)97% (Oct 20, 3:54 pm)30.34 "Hg (Oct 20, 3:54 pm)
Low30 °F (Oct 19, 11:54 am)23% (Oct 12, 3:54 pm)29.55 "Hg (Oct 11, 11:54 pm)
Average55 °F57%29.98 "Hg
* Reported Oct 5 4:54 pm — Oct 20 4:54 pm, Columbus Park. Weather by CustomWeather, © 2020

Note: Actual official high and low records may vary slightly from our data, if they occured in-between our weather recording intervals... More about our weather records

Columbus Park Weather History for the Previous 24 Hours

Scroll right to see more
 ConditionsComfort  
Time TempWeatherWind HumidityBarometerVisibility
4:54 pm
Tue, Oct 20
41 °FFog.7 mph93%30.01 "Hg2 mi
4:33 pm41 °FFog.7 mph93%29.99 "Hg2 mi
3:54 pm40 °FDrizzle. Fog.8 mph97%30.03 "Hg1 mi
2:54 pm40 °FDrizzle. Fog.7 mph93%30.04 "Hg2 mi
1:54 pm40 °FDrizzle. Fog.7 mph93%30.06 "Hg2 mi
12:54 pm39 °FDrizzle. Fog.7 mph89%30.10 "Hg2 mi
12:27 pm38 °FDrizzle. Fog.7 mph90%30.10 "Hg2 mi
11:54 am38 °FDrizzle. Mostly cloudy.9 mph83%30.13 "Hg5 mi
10:54 am36 °FMostly cloudy.9 mph85%30.15 "Hg10 mi
9:54 am35 °FMostly cloudy.9 mph85%30.16 "Hg7 mi
8:54 am34 °FFog.10 mph85%30.19 "Hg6 mi
7:54 am33 °FFog.8 mph88%30.20 "Hg6 mi
6:54 am33 °FLow clouds.10 mph88%30.20 "Hg8 mi
5:54 am32 °FMostly cloudy.6 mph88%30.22 "Hg9 mi
4:54 am32 °FMostly cloudy.6 mph88%30.23 "Hg9 mi
3:54 am32 °FMostly cloudy.6 mph88%30.24 "Hg9 mi
2:54 am32 °FMostly cloudy.7 mph88%30.25 "Hg9 mi
1:54 am32 °FMostly cloudy.5 mph88%30.25 "Hg9 mi
12:54 am32 °FPartly cloudy.6 mph88%30.28 "Hg9 mi
12:43 am31 °FPartly cloudy.5 mph89%30.24 "Hg9 mi
11:54 pm
Mon, Oct 19
31 °FPassing clouds.5 mph89%30.27 "Hg9 mi
10:54 pm32 °FPassing clouds.6 mph85%30.25 "Hg10 mi
9:54 pm32 °FMostly cloudy.7 mph85%30.25 "Hg10 mi
8:54 pm32 °FMostly cloudy.6 mph85%30.25 "Hg10 mi
7:54 pm32 °FOvercast.7 mph85%30.26 "Hg10 mi
6:54 pm33 °FMostly cloudy.8 mph82%30.24 "Hg10 mi
Weather by CustomWeather, © 2020

See weather overview